Wind_Speed
34 33 32 30 28 25 23 21 19 17 15 14 13 14 17 20 22 20 10 13 10 14 8 9 12 20 18 5 8 2 0 5 5 6 8 10 11 4 1 6 5 5 1 7 29
35 35 34 32 30 28 25 23 20 18 16 14 13 14 15 18 22 16 24 17 16 10 8 9 9 10 5 5 4 5 4 7 7 10 7 8 7 7 9 9 6 7 12 17 19
36 37 36 34 32 30 27 24 21 19 17 15 13 13 14 15 6 6 5 18 20 13 11 10 16 5 4 4 7 7 10 9 14 11 10 7 8 6 7 5 6 7 8 10 7
39 37 38 36 34 32 29 26 23 20 18 15 13 12 11 7 4 1 3 5 8 9 4 7 6 4 3 6 7 5 9 7 8 8 7 8 7 7 4 8 8 8 9 7 8
41 39 39 38 36 34 31 28 24 21 18 15 13 11 6 5 8 14 9 4 8 9 4 6 6 4 6 5 7 9 9 11 11 11 7 8 5 7 8 13 11 11 10 9 2
46 41 40 39 37 35 32 30 26 22 18 16 12 9 3 9 14 15 12 9 9 10 8 11 5 7 8 9 6 6 14 14 9 11 7 9 8 8 16 15 10 8 7 7 7
14 41 43 41 40 36 33 30 26 22 18 15 11 6 6 16 10 6 10 14 13 14 7 16 12 8 4 5 5 6 8 10 8 8 10 10 11 15 17 6 10 7 5 7 6
32 33 33 43 40 38 33 29 26 22 17 12 9 4 8 12 17 31 24 19 15 15 14 11 9 5 1 6 8 5 5 5 6 16 18 9 16 10 8 4 4 5 7 4 2
35 28 30 45 40 39 33 28 24 19 15 10 6 6 8 10 19 36 29 21 22 21 15 8 5 3 4 3 3 6 6 10 14 15 12 12 7 13 10 8 7 7 8 4 12
31 26 26 35 45 40 33 26 20 17 13 7 10 6 10 12 15 25 30 28 12 10 7 5 3 4 4 6 8 6 8 9 11 9 4 4 5 6 5 6 8 8 8 3 14
31 30 28 25 44 43 36 28 6 5 13 9 12 10 9 28 19 17 21 20 11 5 10 8 6 10 22 17 12 8 11 15 14 10 6 7 7 10 8 6 8 7 5 13 11
22 36 31 28 34 48 47 16 30 10 7 20 20 23 32 17 6 11 21 14 14 17 14 6 18 19 14 14 16 16 17 17 9 12 10 8 6 5 12 11 8 13 10 8 8
25 27 33 28 32 48 47 44 34 14 3 9 29 24 18 13 12 12 15 12 18 19 20 18 9 22 18 18 18 17 15 11 11 5 8 9 9 8 9 7 17 14 11 8 9
23 23 38 29 28 42 34 42 22 30 4 8 13 11 17 16 15 20 23 16 8 22 17 17 21 16 19 17 13 12 6 8 6 4 5 3 5 4 6 8 11 10 8 8 9
22 19 26 34 11 21 27 38 29 15 7 10 24 15 18 23 9 29 23 20 18 12 17 11 16 21 21 12 18 10 5 5 6 6 4 3 5 6 20 10 10 8 9 9 9
21 22 23 29 30 34 24 42 21 8 10 7 12 23 19 21 13 22 20 13 8 12 18 22 9 9 17 12 6 3 5 5 12 2 11 10 10 6 13 13 13 9 8 9 8
21 21 23 20 14 31 36 13 13 9 5 10 13 29 25 18 25 10 28 23 17 17 21 16 22 15 5 5 9 7 4 4 3 3 9 10 12 11 1 21 18 13 9 9 8
21 23 24 24 27 39 37 13 12 11 20 10 14 21 23 17 23 24 17 26 28 20 11 15 13 20 16 22 12 15 13 7 8 5 2 11 6 4 15 16 12 10 8 9 8
22 21 18 25 34 36 14 18 13 13 21 2 17 19 21 20 10 21 28 26 29 31 16 15 17 8 18 19 23 11 17 16 7 6 2 4 10 12 13 11 11 10 9 7 7
17 12 22 29 34 26 21 25 14 17 11 25 16 13 19 27 20 23 24 23 25 32 19 3 2 10 11 21 21 14 6 11 4 5 7 6 7 10 7 9 8 7 6 5 5
15 5 11 25 25 12 14 16 11 21 12 31 27 13 17 25 26 29 19 15 31 26 27 8 4 6 8 15 20 10 16 4 9 6 5 3 4 5 11 7 6 3 2 2 3
6 8 9 24 11 4 10 5 13 19 19 9 3 13 13 22 27 24 24 16 19 22 29 29 8 7 7 5 6 12 13 7 7 7 2 4 5 12 10 8 6 4 3 4 2
9 10 10 21 13 10 2 6 13 18 27 12 9 6 19 15 12 24 19 1 8 24 21 16 6 7 4 7 2 4 5 7 6 3 7 8 5 12 8 7 5 6 6 5 7
4 7 7 11 7 12 7 6 8 17 18 15 6 7 12 3 2 7 18 2 5 6 8 21 5 15 15 4 9 6 8 8 7 5 4 14 3 6 6 6 6 7 4 5 5
9 5 8 8 15 19 13 13 9 7 3 24 19 12 17 7 3 6 10 4 7 4 5 5 5 3 4 7 4 13 13 11 10 6 10 3 11 3 2 4 6 2 4 5 5
4 4 9 10 12 18 23 14 21 9 10 21 16 25 18 13 15 7 9 6 6 1 4 5 5 4 2 7 5 1 11 13 14 13 11 11 14 5 5 7 3 3 5 4 6
8 6 4 12 12 18 16 15 21 19 7 20 23 17 15 9 8 5 4 8 8 7 4 5 5 4 4 8 7 4 12 17 16 17 16 13 12 5 4 3 4 5 5 7 6
Wind_Direction
255 251 248 245 244 243 246 249 252 258 267 278 289 302 311 314 312 310 255 239 237 250 268 301 279 261 251 245 253 286 274 253 258 282 279 342 359 355 114 32 2 355 38 299 158
254 252 249 245 242 242 242 245 250 254 261 271 284 299 309 318 317 272 274 240 236 247 277 275 283 271 246 240 239 172 187 246 235 261 283 307 356 319 7 345 352 359 339 343 160
253 251 249 246 242 240 239 242 245 249 256 264 278 294 306 324 297 252 315 226 239 254 248 246 271 294 290 300 267 231 225 238 259 274 307 300 338 328 357 319 310 299 297 298 272
253 251 249 246 242 239 237 237 239 244 252 258 270 287 301 320 264 66 100 173 194 182 235 265 258 259 239 239 264 280 262 257 263 282 289 283 284 304 302 272 260 262 252 252 258
253 250 248 245 242 239 235 234 234 237 244 252 263 277 300 232 243 287 266 185 169 194 250 276 286 269 248 263 333 295 295 306 314 306 294 329 315 271 278 271 261 261 259 257 78
248 248 246 244 240 238 234 231 230 231 235 245 257 261 221 246 254 257 223 209 213 208 235 255 248 266 273 265 253 287 287 287 287 290 297 300 296 302 277 268 263 258 248 141 99
255 245 245 242 238 234 232 227 227 226 229 236 252 241 246 226 248 247 224 219 238 233 240 251 287 233 337 312 283 297 315 304 299 294 290 285 279 262 255 284 288 220 185 121 178
260 272 249 241 237 233 225 224 221 220 221 225 241 229 249 246 257 263 246 261 252 252 272 280 319 334 41 329 342 335 289 281 258 262 259 215 258 267 257 118 326 184 158 182 196
260 260 267 235 233 229 222 214 210 210 207 217 212 215 260 254 225 230 238 231 238 252 243 264 296 229 311 246 309 226 254 264 282 250 249 207 220 231 214 176 217 231 217 241 86
255 246 257 238 231 223 212 196 189 192 193 203 243 224 259 230 231 221 227 223 218 221 205 179 203 214 190 190 221 201 229 245 244 287 0 308 273 271 259 231 231 233 241 111 93
259 253 250 252 222 210 181 149 143 220 204 203 183 222 303 222 257 219 209 205 219 230 207 189 193 201 219 214 236 258 272 277 278 290 322 280 278 281 277 266 255 249 41 116 106
280 244 241 241 233 196 171 185 186 158 207 228 250 220 243 285 303 185 188 192 188 203 199 217 223 218 229 228 223 231 242 256 277 285 283 302 297 305 298 265 220 121 112 112 98
286 267 243 237 243 189 184 196 185 173 300 190 218 228 215 228 234 214 189 196 196 199 194 207 211 216 220 229 234 234 234 241 247 273 313 308 302 306 299 56 89 100 117 116 110
282 272 242 226 216 191 195 188 180 213 279 239 195 230 220 235 253 226 197 182 208 205 202 225 229 224 220 226 231 237 250 266 270 278 254 119 277 217 274 112 99 106 101 90 81
296 285 241 214 194 200 194 181 179 148 222 215 199 169 171 189 137 204 208 200 208 190 196 214 187 219 240 220 218 235 242 293 296 285 295 216 277 227 238 156 147 133 113 97 90
297 287 273 219 201 206 198 182 164 214 218 243 162 171 161 195 204 179 194 214 215 217 234 228 240 203 227 232 227 266 196 226 269 265 262 211 211 229 221 176 148 132 122 118 105
288 287 263 263 211 193 180 176 193 204 148 214 194 168 172 177 198 166 194 196 198 205 224 229 238 231 206 272 281 199 152 246 248 222 241 191 204 240 84 138 133 131 124 113 94
283 292 263 258 233 183 171 197 204 183 195 177 164 177 185 148 204 203 184 202 207 204 189 205 235 217 204 219 206 209 198 191 208 208 233 215 236 199 114 103 102 94 96 82 73
286 278 253 253 237 213 199 209 189 184 203 252 164 175 188 192 148 188 214 207 202 196 192 192 231 181 208 209 208 195 217 212 280 306 16 220 77 65 78 72 72 73 64 60 47
279 261 245 240 238 229 200 210 187 210 168 200 197 184 184 189 193 189 193 219 213 205 199 258 328 216 206 211 218 194 152 206 167 200 229 207 212 156 131 93 65 49 49 37 10
269 246 249 233 227 247 224 190 195 206 207 187 214 183 193 183 200 190 200 211 207 201 196 190 89 302 166 202 190 180 208 188 178 176 186 174 233 154 117 105 87 59 48 335 312
239 235 209 193 213 237 204 171 186 185 210 198 251 230 190 194 197 193 205 199 197 189 188 202 184 218 246 360 18 201 206 160 194 235 177 137 254 150 134 136 147 187 185 202 21
228 234 219 181 216 218 321 113 201 180 190 160 215 249 233 191 202 208 199 276 56 192 186 162 184 177 336 328 344 201 191 134 106 98 215 186 230 176 121 95 62 12 335 33 49
229 214 210 204 230 215 162 165 188 201 197 168 170 222 222 92 36 200 207 3 40 127 124 152 159 204 205 209 154 171 177 147 133 172 181 221 207 283 341 22 12 332 336 69 47
198 208 182 190 213 214 193 159 160 161 250 193 208 204 190 186 86 184 197 126 49 18 55 111 133 116 55 72 171 188 191 170 196 188 195 156 253 257 327 347 286 313 70 38 26
195 193 176 196 198 213 183 184 179 164 160 188 204 200 195 189 204 180 150 151 178 30 92 20 104 109 88 98 88 185 213 195 203 216 248 267 264 260 282 272 303 97 73 43 30
201 245 209 191 179 195 196 164 187 178 225 204 202 180 191 178 93 110 57 73 148 141 113 97 119 136 148 131 99 302 226 201 212 225 218 227 240 214 215 145 121 87 56 73 41
Height
780 782 785 787 790 790 792 794 794 795 795 796 795 795 793 790 786 784 781 776 775 775 776 775 775 774 774 775 772 771 803 808 797 788 776 754 761 748 746 752 748 746 748 748 747
773 776 780 781 784 786 788 790 791 792 792 793 793 793 791 789 784 777 769 771 773 774 774 775 774 772 776 773 775 782 800 791 774 770 772 761 762 757 756 756 753 752 747 747 753
765 769 773 775 778 781 783 786 788 789 790 791 791 790 790 788 785 767 763 766 769 771 772 772 772 770 775 771 773 776 788 774 766 761 756 761 759 754 760 764 757 758 753 747 746
759 762 766 769 772 775 778 781 783 786 788 788 789 788 788 789 791 765 765 766 767 770 771 770 769 775 778 783 767 780 767 764 762 754 756 759 751 757 755 754 747 746 745 744 744
750 754 758 763 765 769 772 776 779 782 785 786 787 786 787 787 775 766 768 767 768 769 771 770 772 773 781 772 770 773 766 760 756 756 753 750 757 758 756 745 740 739 739 740 740
742 745 751 755 759 763 767 771 775 777 780 784 785 785 786 787 765 765 765 767 767 768 768 770 770 768 772 770 774 766 765 762 758 758 755 757 757 756 749 738 738 736 738 738 738
735 739 742 747 752 756 761 766 771 774 777 780 782 783 781 768 762 764 764 764 766 766 766 766 767 768 765 770 760 765 775 767 763 758 759 752 765 759 740 736 737 734 735 735 735
726 732 735 738 744 750 753 762 767 772 774 777 780 781 772 760 758 758 759 761 763 763 763 763 765 765 767 767 768 776 775 785 763 755 748 758 774 748 735 734 736 734 734 734 737
721 723 728 730 736 743 749 757 763 770 772 776 778 779 766 752 750 747 753 756 760 762 762 763 765 770 770 781 791 781 791 783 770 744 747 750 760 741 731 732 737 737 737 734 741
715 716 720 723 727 736 744 753 761 768 771 775 772 779 759 742 739 737 743 750 752 755 761 764 770 778 781 788 796 785 784 779 773 745 744 750 752 742 730 730 736 737 737 738 744
707 705 716 718 720 725 738 750 765 765 760 750 748 743 728 734 735 731 737 746 749 754 767 763 778 780 769 767 764 766 769 770 758 745 750 754 752 743 730 729 733 734 740 746 746
702 704 706 712 716 716 719 723 725 734 752 747 743 740 733 731 737 725 733 745 747 755 756 767 767 757 754 757 760 762 767 766 755 744 747 754 753 739 730 727 726 739 746 749 746
698 696 698 699 707 706 707 708 723 726 738 729 732 726 730 734 735 723 726 733 740 747 750 758 743 742 748 751 754 754 758 759 760 749 745 752 755 746 728 725 725 735 741 745 745
692 691 689 694 704 702 699 713 721 730 744 720 722 710 723 730 721 717 717 726 733 740 744 745 736 738 739 743 744 755 739 743 749 758 780 746 789 747 734 743 741 742 745 745 745
685 685 685 685 687 692 696 707 716 725 738 696 688 690 698 715 698 703 710 717 725 725 734 726 724 732 733 732 730 742 735 744 749 760 764 761 774 746 725 748 746 746 744 745 746
683 681 681 677 679 685 695 705 709 709 706 680 662 675 694 698 695 692 705 711 714 723 718 717 711 713 717 717 723 726 738 743 750 760 772 762 765 746 727 725 739 741 744 744 746
680 681 683 683 674 681 692 693 693 683 686 668 658 661 672 685 695 692 704 713 717 732 725 718 712 707 711 729 726 731 746 780 784 786 770 738 752 734 716 715 728 739 745 746 747
674 674 672 673 673 674 679 679 667 669 670 642 647 662 667 674 687 688 696 702 700 703 715 727 730 711 703 714 726 726 736 768 778 775 757 732 750 727 719 724 731 737 744 747 751
668 666 662 660 665 663 662 647 644 651 645 648 644 657 664 665 672 689 682 684 678 683 702 715 712 690 692 700 713 728 732 726 743 738 766 749 739 732 731 738 740 744 747 750 750
662 658 647 651 652 654 635 637 655 637 638 654 650 650 655 662 667 675 681 663 673 674 681 689 711 688 686 693 698 707 714 744 755 783 772 748 736 743 746 747 746 748 748 747 747
657 649 633 638 648 639 609 621 643 633 632 641 639 645 641 652 652 662 657 654 659 663 676 689 706 708 687 694 701 711 717 726 734 755 767 773 760 741 747 746 747 745 743 744 746
648 638 625 633 640 627 618 629 624 625 632 636 636 635 635 643 646 654 656 652 643 654 673 675 704 722 709 705 700 693 709 727 739 757 770 782 775 740 744 743 741 742 742 742 742
631 625 621 627 618 620 623 620 624 623 621 640 644 640 634 635 649 641 645 651 651 650 661 677 709 722 729 716 706 711 706 716 746 756 756 755 759 735 732 734 732 736 737 740 741
619 610 618 614 606 613 617 624 627 616 614 622 639 640 640 652 646 652 643 656 654 651 657 664 695 684 682 687 693 711 705 713 727 746 752 728 740 728 725 730 731 734 735 739 739
599 590 587 592 605 598 607 614 620 623 625 617 633 630 631 652 661 655 644 658 665 669 668 675 693 704 704 697 693 695 700 709 720 730 734 727 725 726 723 727 730 732 734 735 736
587 582 580 577 581 602 594 607 606 619 620 619 621 627 626 638 636 656 653 663 666 675 682 691 704 716 725 720 725 720 706 714 722 723 723 724 722 719 721 724 728 732 731 732 735
574 572 567 564 575 582 585 596 600 608 623 608 611 627 630 635 648 653 660 662 662 669 686 697 709 713 722 723 730 737 727 712 717 713 713 723 717 719 722 723 727 730 729 733 735